GW5803 Weather Reports


time (UTC)temp
C
wind
direction
speed
KPH
gust
KPH
rain 1hr
cm
rain 24hr
cm
rain mn
cm
humidity
%
barometer
mb
20260906052416 20 0 0.0 0.0 0.00 0.00 0.00 98 1015.0
20260906051912 20 0 0.0 0.0 0.00 0.00 0.00 98 1015.1
20260906051412 20 0 0.0 0.0 0.00 0.00 0.00 98 1015.3
20260906050908 20 0 0.0 0.0 0.00 0.00 0.00 98 1015.2
20260906050408 20 0 0.0 0.0 0.00 0.00 0.00 98 1015.2
20260906045907 20 0 0.0 0.0 0.00 0.00 0.00 98 1015.2
20260906045406 20 0 0.0 0.0 0.00 0.00 0.00 98 1014.9
20260906044902 20 0 0.0 0.0 0.00 0.00 0.00 98 1015.2
20260906044403 20 0 0.0 0.0 0.00 0.00 0.00 98 1015.2
20260906043858 20 0 0.0 0.0 0.00 0.00 0.00 98 1015.2
20260906043355 20 0 0.0 0.0 0.00 0.00 0.00 98 1015.4
20260906042855 20 0 0.0 0.0 0.00 0.00 0.00 98 1015.5
20260906042353 20 0 0.0 0.0 0.00 0.00 0.00 98 1015.5
20260906041849 20 0 0.0 0.0 0.00 0.00 0.00 98 1015.7
20260906041345 20 0 0.0 0.0 0.00 0.00 0.00 98 1015.6
20260906040845 20 0 0.0 0.0 0.00 0.00 0.00 98 1015.7
20260906040340 20 0 0.0 0.0 0.00 0.00 0.00 98 1015.7
20260906035835 20 0 0.0 0.0 0.00 0.15 0.15 98 1015.8
20260906035331 20 1 0.0 0.0 0.00 0.15 0.15 98 1015.7
20260906034827 20 2 0.0 0.0 0.00 0.15 0.15 98 1015.6
20260906034327 20 2 0.0 0.0 0.00 0.15 0.15 98 1015.6
20260906033823 20 2 0.0 0.0 0.00 0.15 0.15 98 1015.6
20260906033321 20 2 0.0 0.0 0.00 0.15 0.15 98 1015.5
20260906032818 20 2 0.0 0.0 0.00 0.15 0.15 98 1015.6
20260906032314 20 2 0.0 0.0 0.00 0.15 0.15 98 1015.4
20260906031809 20 2 0.0 0.0 0.00 0.15 0.15 98 1015.6
20260906031304 20 2 0.0 0.0 0.00 0.15 0.15 98 1015.5
20260906030804 20 2 0.0 0.0 0.00 0.15 0.15 98 1015.7
20260906030259 20 2 0.0 0.0 0.00 0.15 0.15 98 1015.5
20260906025759 20 2 0.0 0.0 0.00 0.15 0.15 98 1015.3
20260906025253 20 2 0.0 0.0 0.00 0.15 0.15 98 1015.4
20260906024752 20 2 0.0 0.0 0.00 0.15 0.15 98 1015.3
20260906024251 20 2 0.0 0.0 0.00 0.15 0.15 98 1015.4
20260906023747 20 2 0.0 0.0 0.00 0.15 0.15 98 1015.7
20260906023242 20 2 0.0 0.0 0.00 0.15 0.15 98 1015.6
20260906022738 20 3 0.0 0.0 0.00 0.15 0.15 98 1015.3
20260906022233 20 353 0.0 0.0 0.00 0.15 0.15 98 1015.1
20260906021729 20 353 0.0 0.0 0.00 0.15 0.15 98 1014.8
20260906021227 20 2 0.0 0.0 0.00 0.15 0.15 98 1014.9
20260906020723 20 2 0.0 0.0 0.00 0.15 0.15 98 1014.8
20260906020217 20 2 0.0 0.0 0.00 0.15 0.15 98 1014.7
20260906015712 20 1 0.0 0.0 0.00 0.15 0.15 98 1014.9
20260906015210 20 1 0.0 0.0 0.00 0.15 0.15 98 1014.8
20260906014710 20 1 0.0 0.0 0.00 0.15 0.15 97 1015.0
20260906014207 20 1 0.0 0.0 0.00 0.15 0.15 97 1014.8
20260906013702 20 2 0.0 0.0 0.00 0.15 0.15 97 1014.5
20260906013157 20 2 0.0 0.0 0.00 0.15 0.15 98 1014.5
20260906012657 20 2 0.0 0.0 0.00 0.15 0.15 98 1014.4
20260906012152 20 2 0.0 0.0 0.00 0.15 0.15 98 1014.4
20260906011648 21 2 0.0 0.0 0.00 0.15 0.15 97 1014.4
20260906011148 21 2 0.0 0.0 0.00 0.15 0.15 97 1014.5
20260906010643 21 2 0.0 0.0 0.00 0.15 0.15 96 1014.5
20260906010139 21 2 0.0 0.0 0.00 0.15 0.15 97 1014.5
20260906005639 21 2 0.0 0.0 0.00 0.15 0.15 96 1014.5
20260906005138 21 2 0.0 0.0 0.00 0.15 0.15 96 1014.5
20260906004637 21 2 0.0 0.0 0.00 0.15 0.15 95 1014.4
20260906004132 21 2 0.0 0.0 0.00 0.15 0.15 95 1014.4
20260906003627 21 2 0.0 0.0 0.00 0.15 0.15 95 1014.5
20260906003123 21 2 0.0 0.0 0.00 0.15 0.15 94 1014.5
20260906002618 22 3 0.0 0.0 0.00 0.15 0.15 94 1014.4
20260906002113 22 49 0.0 0.0 0.00 0.15 0.15 94 1014.6
20260906001609 22 50 0.0 0.0 0.00 0.15 0.15 95 1014.5
20260906001108 22 50 0.0 0.0 0.00 0.15 0.15 94 1014.7
20260906000605 22 50 0.0 0.0 0.00 0.15 0.15 94 1014.9
20260906000059 22 50 0.0 0.0 0.00 0.15 0.15 93 1014.8
20260905235558 23 50 0.0 0.0 0.00 0.15 0.15 92 1014.8
20260905235054 23 50 0.0 0.0 0.00 0.15 0.15 91 1015.0
20260905234549 23 76 0.0 0.0 0.00 0.15 0.15 90 1014.6
20260905234044 23 76 0.0 0.0 0.00 0.15 0.15 90 1014.9
20260905233544 23 75 0.0 0.0 0.00 0.15 0.15 90 1014.7
20260905233044 24 44 0.0 0.0 0.00 0.15 0.15 88 1014.7
20260905232539 24 108 0.0 0.0 0.00 0.15 0.15 86 1014.6
20260905232035 23 109 0.0 0.0 0.00 0.15 0.15 85 1014.4
20260905231530 23 63 0.0 0.0 0.00 0.15 0.15 86 1014.6
20260905231026 24 63 0.0 0.0 0.00 0.15 0.15 85 1014.0
20260905230525 24 62 0.0 0.0 0.00 0.15 0.15 85 1013.9
20260905230024 25 63 0.0 0.0 0.00 0.15 0.15 87 1014.1
20260905225519 25 62 0.0 0.0 0.00 0.15 0.15 85 1014.0
20260905225014 25 62 0.0 0.0 0.00 0.15 0.15 84 1014.1
20260905224509 25 61 0.0 0.0 0.00 0.15 0.15 85 1014.1
20260905224008 24 86 0.0 0.0 0.00 0.15 0.15 85 1014.0
20260905223506 24 140 0.0 0.0 0.00 0.15 0.15 86 1014.4
20260905223002 24 44 0.0 0.0 0.13 0.15 0.15 86 1014.5
20260905222501 23 44 0.0 0.0 0.13 0.15 0.15 87 1014.5
20260905221956 23 53 0.0 0.0 0.00 0.13 0.13 88 1014.7
20260905221453 23 69 0.0 0.0 0.00 0.13 0.13 90 1014.5
20260905220949 22 73 0.0 0.0 0.00 0.13 0.13 90 1014.6
20260905220445 22 34 0.0 0.0 0.00 0.13 0.13 92 1014.8
20260905215944 22 35 0.0 0.0 0.00 0.13 0.13 92 1014.7
20260905215440 22 59 0.0 0.0 0.00 0.13 0.13 91 1014.7
20260905214936 21 77 0.0 0.0 0.00 0.13 0.13 91 1014.7
20260905214432 22 349 1.6 3.2 0.00 0.13 0.13 93 1014.6
20260905213931 21 47 0.0 0.0 0.00 0.13 0.13 92 1014.6
20260905213428 21 62 0.0 1.6 0.00 0.13 0.13 92 1014.5
20260905212923 21 39 0.0 0.0 0.00 0.13 0.13 90 1014.5
20260905212417 21 49 0.0 0.0 0.00 0.13 0.13 92 1014.5
20260905211917 21 90 1.6 1.6 0.00 0.13 0.13 91 1014.7
20260905211413 22 321 3.2 3.2 0.00 0.13 0.13 89 1015.0
20260905210909 23 13 1.6 3.2 0.00 0.13 0.13 82 1015.0
20260905210408 22 39 0.0 0.0 0.00 0.13 0.13 85 1015.1
20260905205908 22 37 0.0 3.2 0.00 0.13 0.13 86 1015.1
20260905205403 22 355 6.4 9.7 0.00 0.13 0.13 85 1015.2
20260905204901 22 18 0.0 3.2 0.00 0.13 0.13 89 1015.3
20260905204358 22 45 1.6 8.0 0.00 0.13 0.13 85 1015.3
20260905203856 24 355 1.6 3.2 0.00 0.13 0.13 82 1015.5
20260905203352 25 34 11.3 12.9 0.00 0.13 0.13 78 1015.6
20260905202848 25 25 3.2 14.5 0.00 0.13 0.13 79 1015.3
20260905202342 26 19 8.0 11.3 0.00 0.13 0.13 78 1015.7
20260905201838 26 47 8.0 12.9 0.00 0.13 0.13 79 1015.7
20260905201334 26 17 11.3 22.5 0.00 0.13 0.13 80 1016.1
20260905200833 26 29 4.8 8.0 0.00 0.13 0.13 80 1016.4
20260905200330 25 84 0.0 4.8 0.00 0.13 0.13 83 1016.2
20260905195827 25 44 4.8 8.0 0.00 0.13 0.13 86 1016.1
20260905195323 25 27 1.6 3.2 0.00 0.13 0.13 87 1016.1
20260905194819 23 32 1.6 8.0 0.00 0.13 0.13 92 1016.1
20260905194318 23 126 1.6 3.2 0.18 0.13 0.13 96 1015.9
20260905193818 22 66 0.0 0.0 0.18 0.13 0.13 97 1016.2
20260905193313 22 54 0.0 1.6 0.13 0.10 0.10 97 1016.2
20260905192808 23 76 0.0 0.0 0.30 0.10 0.10 96 1016.4
20260905192306 23 199 1.6 3.2 0.36 0.08 0.08 94 1016.4
20260905191803 23 344 1.6 3.2 0.30 0.05 0.05 93 1016.9
20260905191302 23 25 4.8 12.9 0.13 0.03 0.03 91 1016.9
20260905190801 25 23 11.3 14.5 0.00 0.00 0.00 91 1016.8
20260905190300 27 54 12.9 32.2 0.00 0.00 0.00 85 1016.6
20260905185759 30 16 4.8 9.7 0.00 0.00 0.00 72 1015.8
20260905185254 30 14 4.8 9.7 0.00 0.00 0.00 69 1015.9
20260905184754 32 350 6.4 12.9 0.00 0.00 0.00 62 1016.1
20260905184253 33 359 1.6 3.2 0.00 0.00 0.00 60 1015.6
20260905183753 34 351 1.6 3.2 0.00 0.00 0.00 54 1015.6
20260905183248 32 4 4.8 8.0 0.00 0.00 0.00 59 1015.5
20260905182748 32 2 3.2 9.7 0.00 0.00 0.00 59 1015.7
20260905182247 33 10 0.0 0.0 0.00 0.00 0.00 58 1015.6
20260905181743 31 4 0.0 1.6 0.00 0.00 0.00 61 1015.7
20260905181242 31 2 1.6 3.2 0.00 0.00 0.00 66 1015.9
20260905180737 31 350 1.6 3.2 0.00 0.00 0.00 60 1016.1
20260905180232 31 6 4.8 4.8 0.00 0.00 0.00 63 1016.1
20260905175732 32 2 4.8 8.0 0.00 0.00 0.00 61 1016.2
20260905175227 33 358 0.0 3.2 0.00 0.00 0.00 58 1016.2
20260905174722 32 0 3.2 8.0 0.00 0.00 0.00 62 1016.3
20260905174218 32 358 6.4 8.0 0.00 0.00 0.00 65 1016.3
20260905173714 32 2 4.8 4.8 0.00 0.00 0.00 67 1016.5
20260905173210 30 6 1.6 3.2 0.00 0.00 0.00 67 1016.2
20260905172708 31 8 4.8 4.8 0.00 0.00 0.00 66 1016.1
20260905172203 32 2 6.4 11.3 0.00 0.00 0.00 61 1016.3
20260905171658 32 343 3.2 3.2 0.00 0.00 0.00 60 1016.4
20260905171154 32 345 0.0 0.0 0.00 0.00 0.00 62 1016.5
20260905170652 32 357 3.2 9.7 0.00 0.00 0.00 63 1016.6
20260905170146 31 356 1.6 1.6 0.00 0.00 0.00 65 1016.6
20260905165646 32 357 3.2 8.0 0.00 0.00 0.00 63 1016.6
20260905165141 31 349 1.6 3.2 0.00 0.00 0.00 68 1017.0
20260905164636 31 1 1.6 4.8 0.00 0.00 0.00 63 1017.0
20260905164135 31 359 1.6 4.8 0.00 0.00 0.00 65 1016.9
20260905163632 31 0 3.2 8.0 0.00 0.00 0.00 67 1017.1
20260905163128 31 0 0.0 3.2 0.00 0.00 0.00 67 1016.9
20260905162624 31 355 1.6 3.2 0.00 0.00 0.00 65 1017.0
20260905162123 31 356 1.6 1.6 0.00 0.00 0.00 64 1017.1
20260905161623 30 355 1.6 3.2 0.00 0.00 0.00 69 1017.2
20260905161121 30 3 1.6 4.8 0.00 0.00 0.00 69 1017.1
20260905160621 30 7 4.8 8.0 0.00 0.00 0.00 70 1017.1
20260905160115 28 355 1.6 3.2 0.00 0.00 0.00 74 1017.1
20260905155609 27 348 0.0 0.0 0.00 0.00 0.00 82 1017.2
20260905155108 27 358 0.0 0.0 0.00 0.00 0.00 83 1017.2
20260905154608 26 0 0.0 0.0 0.00 0.00 0.00 83 1017.3
20260905154104 26 2 0.0 0.0 0.00 0.00 0.00 82 1017.3
20260905153559 26 0 0.0 0.0 0.00 0.00 0.00 84 1017.3
20260905153054 26 2 0.0 0.0 0.00 0.00 0.00 83 1017.2
20260905152549 26 2 0.0 0.0 0.00 0.00 0.00 82 1017.2
20260905152044 26 2 0.0 0.0 0.00 0.00 0.00 83 1017.2
20260905151539 27 2 0.0 0.0 0.00 0.00 0.00 83 1017.3
20260905151035 27 0 0.0 0.0 0.00 0.00 0.00 81 1017.4
20260905150529 27 2 0.0 0.0 0.00 0.00 0.00 80 1017.4
20260905150028 27 2 0.0 0.0 0.00 0.00 0.00 78 1017.4
20260905145527 28 2 0.0 0.0 0.00 0.00 0.00 76 1017.4
20260905145026 28 2 3.2 3.2 0.00 0.00 0.00 73 1017.4
20260905144521 28 1 0.0 0.0 0.00 0.00 0.00 75 1017.4
20260905144020 28 1 0.0 0.0 0.00 0.00 0.00 76 1017.4
20260905143520 27 1 0.0 0.0 0.00 0.00 0.00 80 1017.4
20260905143015 27 1 0.0 0.0 0.00 0.00 0.00 79 1017.3
20260905142513 27 1 0.0 0.0 0.00 0.00 0.00 79 1017.6
20260905142009 28 1 0.0 0.0 0.00 0.00 0.00 75 1017.3
20260905141509 28 2 0.0 1.6 0.00 0.00 0.00 76 1017.4
20260905141006 28 1 1.6 3.2 0.00 0.00 0.00 75 1017.3
20260905140500 28 1 0.0 1.6 0.00 0.00 0.00 76 1017.7
20260905135959 27 0 3.2 3.2 0.00 0.00 0.00 74 1017.4
20260905135455 27 0 1.6 3.2 0.00 0.00 0.00 78 1017.4
20260905134950 27 355 0.0 3.2 0.00 0.00 0.00 74 1017.5
20260905134449 27 359 0.0 0.0 0.00 0.00 0.00 76 1017.4
20260905133949 27 0 0.0 0.0 0.00 0.00 0.00 80 1017.5
20260905133444 26 359 0.0 0.0 0.00 0.00 0.00 84 1017.6
20260905132943 26 0 0.0 0.0 0.00 0.00 0.00 87 1017.7
20260905132438 25 359 0.0 0.0 0.00 0.00 0.00 88 1017.5
20260905131933 25 0 0.0 0.0 0.00 0.00 0.00 90 1017.7
20260905131429 25 0 0.0 0.0 0.00 0.00 0.00 90 1017.6
20260905130924 25 0 0.0 0.0 0.00 0.00 0.00 90 1017.7
20260905130423 24 0 0.0 0.0 0.00 0.00 0.00 91 1017.6
20260905125923 23 0 0.0 0.0 0.00 0.00 0.00 92 1017.9
20260905125418 23 0 0.0 0.0 0.00 0.00 0.00 93 1017.6
20260905124914 23 0 0.0 0.0 0.00 0.00 0.00 95 1017.6
20260905124410 22 0 0.0 0.0 0.00 0.00 0.00 96 1017.7
20260905123910 22 0 0.0 0.0 0.00 0.00 0.00 98 1017.9
20260905123407 22 0 0.0 0.0 0.00 0.00 0.00 98 1017.7
20260905122902 21 0 0.0 0.0 0.00 0.00 0.00 98 1017.7
20260905122401 21 0 0.0 0.0 0.00 0.00 0.00 98 1017.7
20260905121857 21 0 0.0 0.0 0.00 0.00 0.00 98 1017.5
20260905121353 21 0 0.0 0.0 0.00 0.00 0.00 98 1017.5
20260905120852 21 0 0.0 0.0 0.00 0.00 0.00 98 1017.5
20260905120346 20 0 0.0 0.0 0.00 0.00 0.00 98 1017.6
20260905115841 20 0 0.0 0.0 0.00 0.00 0.00 98 1017.5
20260905115340 20 0 0.0 0.0 0.00 0.00 0.00 98 1017.3
20260905114835 20 0 0.0 0.0 0.00 0.00 0.00 98 1017.2
20260905114334 20 0 0.0 0.0 0.00 0.00 0.00 98 1017.1
20260905113834 20 0 0.0 0.0 0.00 0.00 0.00 98 1017.1
20260905113329 20 0 0.0 0.0 0.00 0.00 0.00 98 1017.3
20260905112825 20 0 0.0 0.0 0.00 0.00 0.00 98 1017.1
20260905112319 20 0 0.0 0.0 0.00 0.00 0.00 98 1017.2
20260905111815 20 1 0.0 0.0 0.00 0.00 0.00 98 1016.9
20260905111309 20 1 0.0 0.0 0.00 0.00 0.00 98 1016.9
20260905110808 20 1 0.0 0.0 0.00 0.00 0.00 98 1016.9
20260905110302 20 1 0.0 0.0 0.00 0.00 0.00 98 1016.8
20260905105758 20 1 0.0 0.0 0.00 0.00 0.00 98 1016.7
20260905105257 20 1 0.0 0.0 0.00 0.00 0.00 98 1016.9
20260905104751 20 1 0.0 0.0 0.00 0.00 0.00 98 1016.7
20260905104248 20 1 0.0 0.0 0.00 0.00 0.00 98 1016.8
20260905103747 20 1 0.0 0.0 0.00 0.00 0.00 98 1016.8
20260905103243 20 1 0.0 0.0 0.00 0.00 0.00 98 1016.6
20260905102738 20 1 0.0 0.0 0.00 0.00 0.00 98 1016.5
20260905102235 20 1 0.0 0.0 0.00 0.00 0.00 98 1016.5
20260905101734 20 1 0.0 0.0 0.00 0.00 0.00 98 1016.6
20260905101232 20 1 0.0 0.0 0.00 0.00 0.00 98 1016.5
20260905100728 20 1 0.0 0.0 0.00 0.00 0.00 98 1016.6
20260905100224 20 1 0.0 0.0 0.00 0.00 0.00 98 1016.4
20260905095718 20 1 0.0 0.0 0.00 0.00 0.00 98 1016.5
20260905095217 20 1 0.0 0.0 0.00 0.00 0.00 98 1016.6
20260905094712 20 2 0.0 0.0 0.00 0.00 0.00 98 1016.5
20260905094207 20 1 0.0 0.0 0.00 0.00 0.00 98 1016.3
20260905093707 20 1 0.0 0.0 0.00 0.00 0.00 98 1016.3
20260905093203 20 2 0.0 0.0 0.00 0.00 0.00 98 1016.5
20260905092658 20 2 0.0 0.0 0.00 0.00 0.00 98 1016.4
20260905092154 20 2 0.0 0.0 0.00 0.00 0.00 98 1016.2
20260905091653 20 2 0.0 0.0 0.00 0.00 0.00 98 1016.3
20260905091154 20 2 0.0 0.0 0.00 0.00 0.00 98 1016.2
20260905090653 20 2 0.0 0.0 0.00 0.00 0.00 98 1016.1
20260905090149 20 2 0.0 0.0 0.00 0.00 0.00 98 1016.2
20260905085648 20 2 0.0 0.0 0.00 0.00 0.00 98 1016.1
20260905085143 20 2 0.0 0.0 0.00 0.00 0.00 98 1016.2
20260905084642 20 2 0.0 0.0 0.00 0.00 0.00 98 1016.3
20260905084137 20 2 0.0 0.0 0.00 0.00 0.00 98 1016.2
20260905083632 20 2 0.0 0.0 0.00 0.00 0.00 98 1016.2
20260905083129 20 2 0.0 0.0 0.00 0.00 0.00 98 1016.3
20260905082624 20 2 0.0 0.0 0.00 0.00 0.00 98 1016.4
20260905082120 20 2 0.0 0.0 0.00 0.00 0.00 98 1016.4
20260905081619 20 2 0.0 0.0 0.00 0.00 0.00 98 1016.4
20260905081114 20 2 0.0 0.0 0.00 0.00 0.00 98 1016.6
20260905080615 20 2 0.0 0.0 0.00 0.00 0.00 98 1016.5
20260905080109 20 2 0.0 0.0 0.00 0.00 0.00 98 1016.4
20260905075608 20 2 0.0 0.0 0.00 0.00 0.00 98 1016.5
20260905075102 20 2 0.0 0.0 0.00 0.00 0.00 98 1016.5
20260905074601 20 2 0.0 0.0 0.00 0.00 0.00 98 1016.5
20260905074057 21 1 0.0 0.0 0.00 0.00 0.00 98 1016.3
20260905073552 21 1 0.0 0.0 0.00 0.00 0.00 97 1016.5
20260905073048 21 2 0.0 0.0 0.00 0.00 0.00 97 1016.5
20260905072547 21 2 0.0 0.0 0.00 0.00 0.00 98 1016.4
20260905072043 21 2 0.0 0.0 0.00 0.00 0.00 98 1016.4
20260905071539 21 2 0.0 0.0 0.00 0.00 0.00 97 1016.4
20260905071034 21 2 0.0 0.0 0.00 0.00 0.00 97 1016.6
20260905070529 21 2 0.0 0.0 0.00 0.00 0.00 97 1016.5
20260905070025 21 2 0.0 0.0 0.00 0.00 0.00 97 1016.5
20260905065523 21 2 0.0 0.0 0.00 0.00 0.00 97 1016.5
20260905065018 21 2 0.0 0.0 0.00 0.00 0.00 97 1016.6
20260905064513 21 2 0.0 0.0 0.00 0.00 0.00 97 1016.7
20260905064008 21 2 0.0 0.0 0.00 0.00 0.00 97 1016.8
20260905063502 21 2 0.0 0.0 0.00 0.00 0.00 97 1016.9
20260905062959 21 2 0.0 0.0 0.00 0.00 0.00 97 1016.7
20260905062458 21 2 0.0 0.0 0.00 0.00 0.00 97 1016.8
20260905061954 21 2 0.0 0.0 0.00 0.00 0.00 97 1016.8
20260905061453 21 2 0.0 0.0 0.00 0.00 0.00 97 1016.7
20260905060952 21 2 0.0 0.0 0.00 0.00 0.00 97 1016.8
20260905060449 21 2 0.0 0.0 0.00 0.00 0.00 97 1016.9
20260905055949 21 2 0.0 0.0 0.00 0.00 0.00 97 1016.9
20260905055448 21 2 0.0 0.0 0.00 0.00 0.00 97 1016.8
20260905054943 21 2 0.0 0.0 0.00 0.00 0.00 97 1017.0
20260905054439 21 2 0.0 0.0 0.00 0.00 0.00 97 1017.0
20260905053939 21 2 0.0 0.0 0.00 0.00 0.00 97 1016.9
20260905053434 21 2 0.0 0.0 0.00 0.00 0.00 97 1016.9
20260905052930 21 2 0.0 0.0 0.00 0.00 0.00 97 1016.8